JBU963 KJFK-KCHS

Flight info

Callsign JBU963
Flight time N/A
Altitude 38000
Route WAVEY EMJAY Q167 ZJAAY Q97 SAWED DFENC Q109 JOHAR AMYLU AMYLU3
Aircraft A320/M-SDE3FGHIRWY/LB1

Departure

Time N/A
Airport John F. Kennedy International Airport (KJFK)

Arrival

Time 2026-04-23 13:18
Airport Charleston International Airport (KCHS)
Time Latitude Longitude Altitude Speed Heading
2026-04-23 12:57 34.20408 -78.74253 36216 ft 454 kts 227°
2026-04-23 12:58 34.15867 -78.79586 35645 ft 455 kts 229°
2026-04-23 12:58 34.13634 -78.82281 35146 ft 456 kts 229°
2026-04-23 12:58 34.11388 -78.85006 34644 ft 457 kts 229°
2026-04-23 12:59 34.09148 -78.87720 34145 ft 458 kts 229°
2026-04-23 12:59 34.06889 -78.90440 33644 ft 459 kts 229°
2026-04-23 12:59 34.04612 -78.93162 33145 ft 460 kts 229°
2026-04-23 12:59 34.02340 -78.95863 32647 ft 457 kts 228°
2026-04-23 13:00 34.00082 -78.98535 32148 ft 454 kts 228°
2026-04-23 13:00 33.97836 -79.01191 31644 ft 450 kts 228°
2026-04-23 13:00 33.95612 -79.03828 31142 ft 447 kts 227°
2026-04-23 13:00 33.93415 -79.06450 30643 ft 443 kts 228°
2026-04-23 13:01 33.91232 -79.09049 30133 ft 440 kts 227°
2026-04-23 13:01 33.89054 -79.11628 29508 ft 439 kts 227°
2026-04-23 13:01 33.86882 -79.14193 28884 ft 437 kts 227°
2026-04-23 13:01 33.84714 -79.16751 28255 ft 436 kts 227°
2026-04-23 13:02 33.82551 -79.19302 27630 ft 434 kts 226°
2026-04-23 13:02 33.80400 -79.21842 27004 ft 433 kts 226°
2026-04-23 13:02 33.78125 -79.24211 26376 ft 433 kts 218°
2026-04-23 13:02 33.75606 -79.26186 25750 ft 432 kts 213°
2026-04-23 13:03 33.73069 -79.28099 25130 ft 430 kts 213°
2026-04-23 13:03 33.70535 -79.30009 24506 ft 428 kts 213°
2026-04-23 13:03 33.68015 -79.31910 23869 ft 427 kts 213°
2026-04-23 13:03 33.65510 -79.33799 23243 ft 425 kts 213°
2026-04-23 13:04 33.63005 -79.35685 22613 ft 424 kts 213°
2026-04-23 13:04 33.60510 -79.37564 21985 ft 422 kts 213°
2026-04-23 13:04 33.58030 -79.39433 21359 ft 420 kts 213°
2026-04-23 13:04 33.55563 -79.41293 20729 ft 417 kts 213°
2026-04-23 13:05 33.53145 -79.43113 20088 ft 402 kts 213°
2026-04-23 13:05 33.50785 -79.44885 19463 ft 389 kts 213°
2026-04-23 13:05 33.48532 -79.46575 18840 ft 376 kts 213°
2026-04-23 13:05 33.46344 -79.48214 18210 ft 366 kts 213°
2026-04-23 13:06 33.42100 -79.51402 16950 ft 356 kts 214°
2026-04-23 13:06 33.40004 -79.52978 16331 ft 352 kts 213°
2026-04-23 13:06 33.37939 -79.54526 15704 ft 348 kts 213°
2026-04-23 13:07 33.35898 -79.56056 15076 ft 345 kts 213°
2026-04-23 13:07 33.33875 -79.57573 14450 ft 341 kts 213°
2026-04-23 13:07 33.31899 -79.59065 13815 ft 331 kts 214°
2026-04-23 13:07 33.29979 -79.60523 13199 ft 323 kts 214°
2026-04-23 13:08 33.28107 -79.61947 12572 ft 316 kts 214°
2026-04-23 13:08 33.26270 -79.63343 11946 ft 310 kts 214°
2026-04-23 13:08 33.24465 -79.64712 11319 ft 304 kts 214°
2026-04-23 13:08 33.22695 -79.66066 10694 ft 300 kts 217°
2026-04-23 13:09 33.21137 -79.67675 10148 ft 292 kts 229°
2026-04-23 13:09 33.19958 -79.69538 10003 ft 271 kts 240°
2026-04-23 13:09 33.19032 -79.71461 9546 ft 265 kts 242°
2026-04-23 13:09 33.18196 -79.73396 9040 ft 260 kts 253°
2026-04-23 13:10 33.17816 -79.75480 8543 ft 256 kts 261°
2026-04-23 13:10 33.17501 -79.77564 8044 ft 254 kts 261°
2026-04-23 13:10 33.17188 -79.79629 7547 ft 252 kts 261°
2026-04-23 13:10 33.16877 -79.81674 7048 ft 250 kts 261°
2026-04-23 13:11 33.16571 -79.83698 6590 ft 246 kts 261°
2026-04-23 13:11 33.16270 -79.85683 6148 ft 241 kts 261°
2026-04-23 13:11 33.15956 -79.87625 5709 ft 236 kts 256°
2026-04-23 13:11 33.15252 -79.89360 5337 ft 231 kts 234°
2026-04-23 13:12 33.14072 -79.90663 4952 ft 227 kts 214°
2026-04-23 13:12 33.12692 -79.91466 4577 ft 221 kts 207°
2026-04-23 13:12 33.11286 -79.92234 4207 ft 219 kts 207°
2026-04-23 13:12 33.09931 -79.92976 3826 ft 215 kts 208°
2026-04-23 13:13 33.08572 -79.93719 3452 ft 210 kts 208°
2026-04-23 13:13 33.07263 -79.94433 3098 ft 207 kts 208°
2026-04-23 13:13 33.06001 -79.95111 2994 ft 190 kts 208°
2026-04-23 13:13 33.04833 -79.95735 3041 ft 180 kts 209°
2026-04-23 13:14 33.03715 -79.96339 3015 ft 175 kts 208°
2026-04-23 13:14 33.02605 -79.96943 2769 ft 174 kts 208°
2026-04-23 13:14 33.01503 -79.97539 2516 ft 174 kts 207°
2026-04-23 13:14 33.00412 -79.98132 2338 ft 169 kts 207°
2026-04-23 13:15 32.99360 -79.98698 2147 ft 166 kts 208°
2026-04-23 13:15 32.98324 -79.99293 1866 ft 166 kts 207°
2026-04-23 13:15 32.97281 -79.99850 1544 ft 160 kts 205°
2026-04-23 13:15 32.96299 -80.00363 1411 ft 147 kts 207°
2026-04-23 13:16 32.95384 -80.00852 1207 ft 142 kts 207°
2026-04-23 13:16 32.94486 -80.01342 1003 ft 144 kts 206°
2026-04-23 13:16 32.93560 -80.01832 819 ft 145 kts 206°
2026-04-23 13:16 32.92650 -80.02324 629 ft 142 kts 206°
2026-04-23 13:17 32.91763 -80.02814 407 ft 140 kts 206°
2026-04-23 13:17 32.90874 -80.03271 222 ft 139 kts 205°
2026-04-23 13:17 32.90006 -80.03746 40 ft 133 kts 204°
2026-04-23 13:17 32.89381 -80.04082 41 ft 56 kts 204°
2026-04-23 13:18 32.89221 -80.04164 40 ft 32 kts 203°
2026-04-23 13:18 32.89018 -80.04270 39 ft 32 kts 204°
2026-04-23 13:18 32.88815 -80.04377 39 ft 32 kts 204°
2026-04-23 13:18 32.88625 -80.04482 38 ft 29 kts 205°
2026-04-23 13:19 32.88514 -80.04533 41 ft 13 kts 175°
2026-04-23 13:19 32.88481 -80.04442 39 ft 14 kts 91°
2026-04-23 13:19 32.88527 -80.04334 39 ft 17 kts 46°
2026-04-23 13:19 32.88596 -80.04223 41 ft 17 kts 53°
2026-04-23 13:20 32.88656 -80.04133 39 ft 10 kts 52°
2026-04-23 13:20 32.88672 -80.04050 41 ft 12 kts 123°
2026-04-23 13:20 32.88612 -80.03994 40 ft 9 kts 141°
2026-04-23 13:20 32.88565 -80.03950 41 ft 8 kts 143°
2026-04-23 13:21 32.88559 -80.03893 41 ft 8 kts 72°
2026-04-23 13:21 32.88567 -80.03863 41 ft 1 kts 74°
2026-04-23 13:21 32.88569 -80.03853 41 ft 0 kts 74°